Weather History for St. Joseph, MO

Change the Weather History Date:

Monday, December 31, 2012

  Actual Average Record
Temperature  
Mean Temperature 28 °F 27 °F  
Max Temperature 36 °F 36 °F 64 °F (1965)
Min Temperature 20 °F 17 °F -10 °F (1976)
Degree Days  
Heating Degree Days 37 38  
Month to date heating degree days 984 1101  
Since 1 July heating degree days 2096 2213  
Cooling Degree Days 0 0  
Month to date cooling degree days 0 0  
Year to date cooling degree days 1565 1221  
Moisture  
Dew Point 21 °F    
Average Humidity 72    
Maximum Humidity 84    
Minimum Humidity 59    
Precipitation  
Precipitation 0.02 in 0.04 in 1.58 in (1931)
Month to date precipitation 0.96 1.52  
Year to date precipitation 23.27 35.60  
Sea Level Pressure  
Sea Level Pressure 30.15 in    
Wind  
Wind Speed 10 mph (North)    
Max Wind Speed 18 mph    
Max Gust Speed 22 mph    
Visibility 5 miles    
Events Fog , Snow    
T = Trace of Precipitation, MM = Missing Value Source: NWS Daily Summary

Daily Weather History Graph

Daily Weather History Graph

Search for Another Location

Airport:

Trip Planner

Search our weather history database for the weather conditions in past years. The results will help you decide how hot, cold, wet, or windy it might be!

Date:

Astronomy

Dec. 31, 2012 Rise Set
Actual Time 7:40 AM CST 5:05 PM CST
Civil Twilight 7:10 AM CST 5:35 PM CST
Nautical Twilight 6:36 AM CST 6:09 PM CST
Astronomical Twilight 6:03 AM CST 6:42 PM CST
Moon 8:36 PM CST 9:23 AM CST
Length of Visible Light 10h 25m
Length of Day
9h 24m
Waning Gibbous, 90% of the Moon is Illuminated
Dec 31
Waning Gibbous
Jan 4
Last Quarter
Jan 11
New
Jan 18
First Quarter
Jan 26
Full

Hourly Weather History & Observations

Time (CST) Temp. Windchill Dew Point Humidity Pressure Visibility Wind Dir Wind Speed Gust Speed Precip Events Conditions
12:53 AM 36.0 °F 29.0 °F 23.0 °F 59% 30.13 in 10.0 mi SSW 9.2 mph - N/A   Mostly Cloudy
1:53 AM 35.1 °F 30.1 °F 24.1 °F 64% 30.13 in 10.0 mi SSW 5.8 mph - N/A   Clear
2:53 AM 35.1 °F 29.3 °F 23.0 °F 61% 30.15 in 10.0 mi WSW 6.9 mph - N/A   Overcast
3:53 AM 34.0 °F - 25.0 °F 70% 30.13 in 10.0 mi Calm Calm - N/A   Scattered Clouds
4:53 AM 33.1 °F 27.7 °F 24.1 °F 70% 30.14 in 10.0 mi NW 5.8 mph - N/A   Overcast
5:53 AM 32.0 °F 24.8 °F 24.1 °F 73% 30.13 in 10.0 mi North 8.1 mph - N/A   Overcast
6:53 AM 30.9 °F 22.8 °F 24.1 °F 76% 30.13 in 10.0 mi North 9.2 mph - N/A   Overcast
7:53 AM 30.0 °F 24.1 °F 24.1 °F 79% 30.14 in 10.0 mi North 5.8 mph - N/A   Overcast
8:53 AM 28.9 °F 20.4 °F 21.9 °F 75% 30.17 in 10.0 mi North 9.2 mph - N/A   Overcast
9:36 AM 28.4 °F 18.5 °F 23.0 °F 80% 30.17 in 1.8 mi North 11.5 mph - 0.00 in Snow Light Snow
9:53 AM 27.0 °F 16.7 °F 23.0 °F 85% 30.20 in 1.2 mi North 11.5 mph - 0.00 in Snow Light Snow
10:53 AM 27.0 °F 16.7 °F 23.0 °F 85% 30.20 in 1.2 mi North 11.5 mph - 0.00 in Snow Light Snow
11:41 AM 26.6 °F 17.5 °F 23.0 °F 86% 30.17 in 0.8 mi North 9.2 mph - 0.01 in Snow Light Snow
11:53 AM 26.1 °F 16.8 °F 23.0 °F 88% 30.19 in 0.8 mi North 9.2 mph - 0.01 in Snow Light Snow
12:07 PM 26.6 °F 15.7 °F 23.0 °F 86% 30.15 in 0.5 mi NNE 12.7 mph - 0.00 in Fog , Snow Snow
12:18 PM 26.6 °F 16.2 °F 23.0 °F 86% 30.15 in 0.8 mi North 11.5 mph - 0.00 in Snow Light Snow
12:26 PM 26.6 °F 15.7 °F 21.2 °F 80% 30.14 in 1.0 mi North 12.7 mph - 0.01 in Snow Light Snow
12:45 PM 24.8 °F 12.9 °F 21.2 °F 86% 30.12 in 0.8 mi North 13.8 mph - 0.01 in Snow Light Snow
12:53 PM 26.1 °F 14.5 °F 21.9 °F 84% 30.15 in 1.0 mi NNE 13.8 mph - 0.01 in Snow Light Snow
1:09 PM 24.8 °F 11.9 °F 21.2 °F 86% 30.11 in 2.0 mi North 16.1 mph - 0.00 in Snow Light Snow
1:22 PM 24.8 °F 12.4 °F 21.2 °F 86% 30.10 in 3.0 mi NNE 15.0 mph - 0.00 in Snow Light Snow
1:31 PM 24.8 °F 11.9 °F 19.4 °F 80% 30.10 in 3.0 mi NNE 16.1 mph - 0.00 in Snow Light Snow
1:53 PM 25.0 °F 12.6 °F 19.9 °F 81% 30.12 in 2.5 mi NNE 15.0 mph - 0.00 in Snow Light Snow
2:31 PM 24.8 °F 14.0 °F 19.4 °F 80% 30.11 in 3.0 mi NNE 11.5 mph - 0.00 in Snow Light Snow
2:49 PM 24.8 °F 14.0 °F 19.4 °F 80% 30.11 in 4.0 mi NE 11.5 mph - 0.00 in Snow Light Snow
2:53 PM 25.0 °F 15.5 °F 19.9 °F 81% 30.14 in 4.0 mi NNE 9.2 mph - 0.00 in Snow Light Snow
3:17 PM 24.8 °F 14.6 °F 19.4 °F 80% 30.11 in 1.8 mi NE 10.4 mph - 0.00 in Snow Light Snow
3:26 PM 24.8 °F 14.0 °F 19.4 °F 80% 30.11 in 1.2 mi NNE 11.5 mph - 0.00 in Snow Light Snow
3:53 PM 25.0 °F 13.6 °F 19.0 °F 78% 30.14 in 1.8 mi NNE 12.7 mph - 0.00 in Snow Light Snow
4:03 PM 24.8 °F 15.3 °F 19.4 °F 80% 30.12 in 2.5 mi NNE 9.2 mph - 0.00 in Snow Light Snow
4:19 PM 24.8 °F 15.3 °F 19.4 °F 80% 30.13 in 1.5 mi North 9.2 mph - 0.00 in Snow Light Snow
4:53 PM 24.1 °F 13.7 °F 19.0 °F 81% 30.15 in 2.0 mi North 10.4 mph - 0.00 in Snow Light Snow
5:04 PM 24.8 °F 14.0 °F 19.4 °F 80% 30.13 in 4.0 mi NNE 11.5 mph - 0.00 in Snow Light Snow
5:53 PM 24.1 °F 14.4 °F 19.0 °F 81% 30.18 in 10.0 mi North 9.2 mph - 0.00 in   Overcast
7:28 PM 21.2 °F 7.8 °F 17.6 °F 86% 30.17 in 6.0 mi NNE 15.0 mph - 0.00 in Snow Light Snow
7:42 PM 21.2 °F 8.3 °F 15.8 °F 80% 30.17 in 8.0 mi NNE 13.8 mph - 0.00 in Snow Light Snow
7:53 PM 21.9 °F 9.2 °F 16.0 °F 78% 30.21 in 7.0 mi NNE 13.8 mph - 0.00 in Snow Light Snow
8:53 PM 21.0 °F 7.6 °F 16.0 °F 81% 30.21 in 3.0 mi North 15.0 mph - 0.00 in Snow Light Snow
9:53 PM 19.9 °F 6.7 °F 15.1 °F 81% 30.23 in 4.0 mi North 13.8 mph - 0.00 in Snow Light Snow
10:53 PM 19.9 °F 7.3 °F 15.1 °F 81% 30.25 in 5.0 mi North 12.7 mph - 0.00 in Snow Light Snow
11:53 PM 19.9 °F 9.3 °F 12.9 °F 74% 30.25 in 10.0 mi North 9.2 mph - 0.00 in   Overcast